Weather past 2 weeks in Saipan, Northern Mariana Islands

Now
82 °F

Passing clouds.


Feels Like: 91 °F
Forecast: 78 / 83 °F
Wind: 7 mph from Northeast

Location: Saipan International Airport

Current Time: Sep 22, 2014 at 4:41:21 AM

Latest Report: Sep 22, 2014 at 3:54 AM


Visibility: 10 mi

Pressure: 29.83 "Hg

Humidity: 88%

Dew point: 78 °F

Location of SaipanLocation

Historic Weather in Saipan — Graph

°F

Saipan temperature yesterday

Maximum temperature yesterday: 86 °F (at 8:54 AM)
Minimum temperature yesterday: 78 °F (at 8:54 PM)
Average temperature yesterday: 83 °F

Past Weeks' High & Low Weather Summary

 TemperatureHumidityPressure
High89 °F (Sep 11, 11:54 AM)100% (Sep 10, 6:47 AM)30.02 "Hg (Sep 10, 6:47 AM)
Low73 °F (Sep 10, 6:47 AM)65% (Sep 10, 12:54 PM)29.72 "Hg (Sep 15, 4:38 PM)
Average81 °F84%29.89 "Hg
* Reported Sep 7 2:54 AM — Sep 22 2:54 AM, Saipan, Weather by CustomWeather, © 2014

Note: Actual official high and low records may vary slightly from our data, if they occured in-between our weather recording intervals... More about our weather records

Advertising

Saipan weather history for previous 24 hours

 ConditionsComfort  
Time TempWeatherWind HumidityBarometerVisibility
2:54 AM
Sep 22
81 °FPassing clouds.7 mph91%29.83 "Hg10 mi
1:54 AM82 °FPassing clouds.5 mph88%29.84 "Hg10 mi
1:38 AM82 °FPartly cloudy.9 mph89%29.78 "Hg10 mi
1:31 AM82 °FPassing clouds.8 mph89%29.78 "Hg10 mi
12:54 AM81 °FPassing clouds.8 mph91%29.86 "Hg10 mi
11:54 PM
Sep 21
79 °FClear.8 mph88%29.88 "Hg10 mi
10:54 PM81 °FClear.5 mph91%29.89 "Hg10 mi
9:54 PM80 °FPartly cloudy.5 mph94%29.90 "Hg10 mi
8:54 PM78 °FPartly cloudy.5 mph90%29.90 "Hg10 mi
7:54 PM82 °FPartly cloudy.6 mph88%29.88 "Hg10 mi
6:54 PM81 °FPassing clouds.5 mph85%29.87 "Hg10 mi
5:54 PM84 °FScattered clouds.7 mph83%29.87 "Hg10 mi
4:54 PM85 °FPassing clouds.10 mph80%29.85 "Hg10 mi
3:54 PM85 °FPassing clouds.10 mph77%29.83 "Hg10 mi
2:54 PM85 °FOvercast.9 mph77%29.83 "Hg10 mi
1:54 PM85 °FOvercast.10 mph77%29.83 "Hg10 mi
12:54 PM86 °FPartly sunny.14 mph80%29.86 "Hg10 mi
11:54 AM84 °FScattered clouds.15 mph85%29.88 "Hg10 mi
11:08 AM81 °FRain. Fog.12 mph89%29.84 "Hg4 mi
11:01 AM81 °FRain. Fog.16 mph89%29.85 "Hg3 mi
9:54 AM85 °FScattered clouds.14 mph80%29.92 "Hg10 mi
8:54 AM86 °FSunny.13 mph80%29.91 "Hg10 mi
7:54 AM84 °FPassing clouds.13 mph85%29.90 "Hg10 mi
6:54 AM82 °FPassing clouds.8 mph91%29.88 "Hg10 mi
5:54 AM82 °FPassing clouds.10 mph88%29.87 "Hg10 mi
4:54 AM81 °FPassing clouds.7 mph91%29.85 "Hg10 mi
Weather by CustomWeather, © 2014

See weather overviewHow to use our weather pages